Wind_Speed
11 11 11 11 11 10 11 11 11 11 11 11 11 11 11 11 11 11 11 11 12 12 12 11 11 12 12 12 13 13 13 13 14 14 15 15 16 17
12 12 13 13 13 12 12 12 12 12 12 12 13 13 13 12 12 13 13 13 13 14 13 13 14 14 14 15 15 16 16 16 17 17 18 19 19 20
13 14 14 14 14 14 14 14 14 14 14 14 14 14 14 14 14 14 14 14 15 16 16 16 17 17 17 18 18 19 19 19 19 20 21 22 22 23
15 15 15 15 15 15 15 16 16 16 16 16 16 16 15 15 15 15 16 16 17 17 18 19 20 20 20 21 21 22 22 23 23 24 25 25 26 26
17 16 16 16 16 16 16 17 17 17 17 17 17 17 16 17 17 17 18 19 20 20 21 22 23 23 23 24 24 25 26 26 27 28 28 29 29 30
18 18 17 18 18 18 17 18 18 18 18 18 18 18 19 19 20 20 21 22 23 23 23 25 25 26 27 27 28 28 29 29 30 30 31 31 32 32
19 19 19 19 19 19 19 19 20 20 20 20 20 21 22 22 23 23 24 25 25 26 26 27 27 28 30 31 31 31 32 32 33 33 34 34 34 35
20 20 20 21 21 21 20 20 20 20 21 21 21 22 23 24 25 26 27 27 28 29 29 30 31 31 32 33 34 33 34 34 35 35 36 37 38 39
21 21 21 21 21 21 22 22 22 21 22 23 23 24 25 26 27 28 29 29 30 31 31 32 32 33 34 35 35 35 35 36 36 37 39 39 40 41
20 20 20 20 21 22 23 23 23 23 24 24 25 26 27 28 29 30 30 30 31 32 33 33 34 34 35 36 37 37 38 38 39 40 41 41 41 41
19 19 20 21 21 22 22 23 23 24 24 25 26 27 28 30 30 31 31 32 33 33 35 35 35 36 36 37 39 40 40 41 42 42 43 43 43 43
19 19 20 21 22 22 22 23 24 25 26 27 28 29 29 30 31 32 33 34 34 35 36 36 36 38 38 39 41 42 43 43 44 44 45 45 45 46
19 19 20 21 22 23 24 24 25 26 27 28 29 30 31 32 33 34 34 35 36 37 38 38 38 39 40 41 42 44 46 46 46 46 46 47 47 48
18 19 20 21 21 23 24 25 26 27 28 29 30 32 33 34 35 35 36 37 38 38 39 40 40 41 42 44 44 45 46 47 47 47 47 48 48 49
20 21 22 23 24 25 26 27 28 28 30 31 32 33 34 35 37 38 39 39 39 40 41 42 43 44 45 45 45 45 46 47 48 48 49 49 50 50
23 23 24 25 26 27 27 28 29 30 31 32 33 34 36 37 38 39 39 40 41 41 43 44 45 45 46 46 47 47 47 47 48 49 50 51 52 52
24 25 26 27 27 28 29 30 31 32 33 35 36 37 38 38 39 40 41 43 43 43 44 45 46 47 47 48 48 47 47 49 50 50 50 50 51 51
25 26 27 28 29 30 31 32 32 34 35 37 38 39 40 41 41 42 44 44 44 44 45 46 46 47 47 48 48 48 49 50 50 50 50 50 50 50
26 27 29 30 31 32 33 34 35 36 37 38 39 40 41 42 43 44 45 46 46 46 46 46 46 47 48 48 49 50 50 50 50 50 50 50 50 49
27 28 29 31 32 33 34 35 36 37 38 39 40 41 42 43 44 44 44 44 45 45 46 47 47 48 49 49 49 50 50 50 50 50 50 50 49 48
28 28 29 31 33 34 35 36 36 37 38 39 41 42 42 42 43 43 44 44 45 46 46 47 47 48 49 49 49 49 49 49 49 48 48 48 48 47
29 30 31 32 33 34 35 36 37 38 39 40 40 41 42 42 43 43 44 44 45 45 45 46 46 46 47 47 47 47 47 46 47 47 47 46 46 45
30 31 31 32 33 34 35 36 37 37 38 39 40 41 42 42 43 43 44 44 44 45 45 45 45 45 45 45 45 45 45 45 44 44 44 43 43 43
Wind_Direction
252 252 253 248 248 247 245 245 247 248 250 253 255 257 257 259 260 262 264 265 269 273 275 275 278 280 281 283 284 286 288 288 287 286 287 287 287 287
252 253 253 251 250 251 250 248 249 254 256 256 254 257 260 261 261 263 264 265 268 271 274 276 277 280 282 282 283 284 286 287 287 287 287 287 288 288
253 256 256 255 253 254 253 252 251 255 257 257 255 257 260 262 264 266 269 271 271 272 272 274 276 278 281 282 283 284 285 285 285 286 287 288 289 288
255 256 258 257 257 256 255 253 253 256 259 257 257 258 260 264 266 268 271 273 275 276 275 274 276 278 280 282 284 285 285 285 285 286 287 288 288 288
254 256 258 259 259 259 258 256 256 258 259 258 258 260 262 265 267 270 274 276 277 278 278 277 278 278 279 281 283 284 284 285 286 287 288 287 287 288
254 255 257 258 258 260 260 259 257 258 258 257 258 262 265 268 270 273 275 277 278 280 280 279 280 279 279 281 282 283 283 284 285 286 287 287 287 288
256 256 257 257 258 259 260 262 260 259 260 261 262 266 269 271 272 273 275 277 279 280 280 280 281 282 282 282 282 283 283 284 284 285 286 287 287 288
257 258 258 258 258 259 261 264 264 262 262 264 266 269 272 274 275 276 276 278 279 280 280 281 281 281 282 283 282 283 284 284 285 286 286 287 286 286
261 260 258 257 258 260 264 266 266 266 265 266 268 271 274 276 278 279 279 280 280 280 281 281 280 282 283 283 284 283 284 285 286 286 286 287 287 287
263 260 258 258 261 263 264 266 266 268 268 269 271 273 275 277 279 280 282 282 283 282 281 280 281 282 283 284 284 284 285 286 286 286 286 287 287 287
265 261 260 259 261 263 264 266 268 270 272 273 275 276 278 279 280 281 282 283 285 285 283 282 281 281 282 282 283 284 285 286 286 286 285 286 286 286
264 263 264 264 263 264 266 268 270 272 274 276 278 280 280 281 282 282 283 283 284 285 284 283 283 282 282 282 283 284 284 285 285 285 285 285 285 285
267 265 266 267 266 267 268 270 272 274 275 278 280 281 282 284 285 285 285 285 285 285 284 284 284 284 283 282 283 284 285 285 285 285 285 285 285 285
269 269 269 270 272 274 273 274 275 276 279 280 282 283 285 285 286 286 286 286 287 287 286 285 285 284 284 284 284 285 286 286 285 285 285 285 285 286
270 270 271 273 274 276 275 275 276 278 280 281 283 284 285 286 288 287 287 288 288 288 288 288 287 286 286 285 285 285 285 285 285 284 284 284 285 285
271 271 272 274 276 277 278 279 279 280 281 281 283 285 286 287 288 288 288 288 288 289 288 288 288 288 287 287 286 285 285 286 286 286 286 286 286 286
274 273 274 275 277 278 279 280 281 282 282 283 284 285 286 286 287 288 288 288 288 288 289 289 289 288 288 288 288 287 287 287 288 287 287 287 287 287
278 278 279 279 280 281 281 282 283 283 283 284 284 285 286 287 287 288 289 289 289 288 288 289 289 289 289 289 289 289 289 289 288 288 288 289 289 288
282 282 283 282 282 282 283 283 284 284 285 285 285 287 288 288 288 288 289 289 289 288 289 289 288 288 288 289 290 290 290 289 289 289 289 290 290 289
284 284 284 284 284 284 284 284 285 286 286 286 287 288 289 289 290 290 291 291 291 291 290 290 289 289 288 289 290 290 290 290 290 290 290 290 291 291
287 286 287 287 287 287 287 287 287 287 288 288 289 289 289 290 291 292 292 292 292 292 292 291 290 290 290 290 291 291 291 291 291 291 291 290 290 290
289 289 289 289 289 289 290 289 290 290 291 292 293 293 293 293 293 293 293 293 293 293 293 293 293 293 293 293 292 292 292 292 293 293 292 292 292 291
290 292 293 293 292 292 292 292 293 293 294 294 295 295 295 295 294 294 294 295 295 295 295 295 294 294 294 294 294 294 294 294 294 294 294 295 294 294
Height
5884 5885 5885 5885 5885 5886 5886 5887 5887 5887 5887 5887 5887 5887 5886 5886 5885 5885 5885 5884 5883 5883 5882 5882 5881 5880 5879 5878 5877 5876 5874 5873 5872 5871 5869 5868 5867 5865
5881 5881 5881 5882 5882 5882 5883 5883 5884 5884 5884 5884 5884 5884 5883 5883 5882 5882 5881 5881 5880 5880 5879 5878 5877 5876 5875 5874 5873 5872 5870 5869 5868 5866 5865 5863 5862 5860
5877 5878 5878 5878 5879 5879 5879 5880 5880 5880 5880 5881 5880 5880 5880 5879 5879 5878 5878 5877 5876 5876 5875 5874 5873 5872 5871 5870 5868 5867 5866 5864 5863 5861 5859 5858 5856 5854
5874 5874 5874 5874 5875 5875 5875 5876 5876 5876 5876 5876 5876 5876 5876 5875 5875 5874 5874 5873 5872 5871 5870 5869 5868 5867 5866 5864 5863 5861 5860 5858 5857 5855 5853 5851 5850 5848
5869 5870 5870 5870 5871 5870 5871 5871 5871 5871 5871 5871 5872 5872 5871 5871 5870 5870 5869 5868 5867 5866 5865 5864 5862 5861 5859 5858 5856 5855 5853 5852 5850 5848 5846 5844 5842 5840
5865 5865 5865 5866 5866 5866 5866 5866 5866 5866 5867 5867 5867 5867 5867 5866 5866 5865 5864 5863 5862 5860 5859 5858 5856 5854 5852 5851 5849 5847 5846 5844 5842 5840 5838 5836 5834 5832
5860 5860 5860 5860 5861 5861 5861 5861 5861 5861 5861 5862 5862 5862 5861 5861 5860 5859 5858 5857 5856 5854 5852 5851 5849 5847 5845 5843 5841 5839 5838 5836 5833 5831 5829 5827 5825 5822
5854 5854 5855 5855 5855 5855 5855 5856 5856 5856 5856 5856 5856 5856 5855 5854 5853 5852 5851 5850 5849 5847 5845 5843 5841 5839 5837 5835 5832 5830 5828 5826 5824 5822 5819 5817 5814 5812
5849 5848 5848 5849 5850 5850 5850 5850 5850 5850 5850 5850 5850 5849 5848 5847 5846 5845 5843 5842 5841 5839 5837 5835 5832 5830 5828 5826 5823 5821 5819 5816 5814 5812 5809 5806 5804 5801
5843 5842 5843 5843 5844 5844 5844 5844 5844 5844 5844 5843 5843 5842 5841 5840 5838 5837 5836 5834 5832 5830 5827 5826 5823 5821 5819 5817 5814 5812 5809 5807 5804 5801 5798 5795 5792 5789
5837 5837 5837 5838 5838 5838 5838 5838 5838 5837 5837 5836 5836 5834 5833 5832 5830 5829 5827 5825 5823 5821 5817 5816 5814 5812 5810 5807 5804 5801 5798 5795 5792 5789 5786 5783 5780 5777
5832 5832 5832 5832 5832 5831 5831 5831 5831 5830 5830 5829 5828 5827 5825 5823 5821 5820 5818 5816 5814 5811 5808 5805 5803 5801 5799 5796 5793 5789 5786 5783 5780 5777 5774 5771 5767 5764
5827 5827 5826 5826 5826 5825 5825 5825 5824 5823 5822 5821 5820 5818 5817 5815 5812 5810 5808 5806 5803 5801 5798 5794 5792 5789 5786 5784 5781 5777 5774 5770 5767 5764 5760 5757 5754 5750
5822 5821 5821 5820 5820 5819 5819 5818 5817 5816 5815 5813 5812 5810 5808 5805 5803 5800 5798 5795 5793 5790 5787 5783 5780 5777 5774 5771 5769 5765 5761 5757 5754 5750 5746 5743 5739 5735
5816 5815 5815 5814 5813 5812 5811 5810 5809 5808 5807 5805 5803 5801 5798 5796 5793 5790 5787 5784 5781 5778 5775 5771 5768 5764 5761 5758 5755 5752 5748 5744 5740 5736 5732 5728 5725 5721
5809 5809 5808 5807 5806 5805 5804 5803 5801 5800 5798 5796 5794 5792 5789 5786 5783 5780 5777 5773 5770 5766 5762 5758 5754 5751 5747 5744 5741 5737 5734 5730 5726 5722 5718 5714 5710 5705
5802 5801 5801 5800 5798 5797 5796 5794 5793 5791 5789 5787 5784 5781 5778 5775 5772 5768 5765 5761 5758 5754 5750 5745 5741 5738 5734 5730 5726 5723 5719 5715 5712 5707 5703 5699 5694 5690
5796 5794 5793 5792 5790 5789 5787 5785 5783 5781 5779 5776 5773 5770 5767 5764 5760 5756 5753 5749 5745 5741 5737 5733 5729 5725 5720 5716 5712 5708 5705 5700 5696 5692 5688 5684 5680 5675
5788 5787 5785 5783 5782 5780 5778 5776 5773 5771 5768 5765 5762 5758 5755 5751 5748 5744 5740 5736 5731 5728 5724 5719 5715 5711 5707 5703 5698 5693 5690 5685 5681 5677 5672 5668 5665 5660
5780 5778 5777 5775 5773 5770 5768 5765 5762 5760 5757 5753 5750 5746 5743 5739 5735 5731 5726 5722 5718 5714 5709 5705 5701 5697 5693 5689 5684 5679 5674 5670 5666 5662 5658 5654 5650 5645
5772 5770 5767 5765 5763 5760 5757 5754 5751 5748 5745 5742 5738 5734 5730 5726 5722 5717 5713 5709 5705 5701 5696 5692 5687 5683 5678 5674 5670 5665 5660 5655 5651 5647 5643 5639 5636 5631
5763 5761 5758 5756 5753 5750 5747 5744 5740 5737 5734 5730 5726 5722 5718 5714 5709 5705 5701 5696 5692 5687 5683 5678 5673 5669 5664 5660 5655 5651 5646 5641 5636 5632 5627 5624 5620 5616
5755 5752 5749 5746 5743 5740 5737 5733 5730 5726 5722 5718 5714 5710 5706 5702 5697 5693 5688 5684 5679 5674 5670 5665 5660 5655 5650 5646 5642 5637 5633 5628 5624 5619 5614 5609 5605 5601